Miscellaneous Local Product
Issued by NWS Hastings, NE

Home | Current Version | Previous Version | Text Only | Print | Product List | Glossary On
Versions: 1 2 3 4 5 6 7 8 9 10 11 12 13 14 15 16 17 18 19 20 21 22 23 24 25 26 27 28 29 30 31 32 33 34 35 36 37 38 39 40 41 42 43 44 45 46 47 48 49 50
326
AXUS43 KGID 102002
MISGRI

GID CWA HOURLY WEATHER ROUNDUP
NATIONAL WEATHER SERVICE HASTINGS NE
200 PM CST WED FEB 10 2016

NOTE: "FAIR" INDICATES FEW OR NO CLOUDS BELOW 12,000 FEET WITH NO
SIGNIFICANT WEATHER AND/OR OBSTRUCTIONS TO VISIBILITY.

...SOUTH CENTRAL NEBRASKA...

CITY           SKY/WX    TMP DP  RH WIND       PRES   REMARKS
GRAND ISLAND   SUNNY     45  31  58 W7        29.85F
HASTINGS       SUNNY     45  31  58 W9        29.86F
KEARNEY        SUNNY     48  30  49 W8        29.87F
ORD            SUNNY     53  30  41 NW13      29.83F
YORK           SUNNY     45  34  65 NW9       29.85F
AURORA         SUNNY     44  31  62 W9        29.86F
LEXINGTON      SUNNY     46  31  55 W16       29.90S
HOLDREGE       SUNNY     49  29  47 W12       29.90F
HEBRON         SUNNY     46  32  58 W7        29.88F

...NEBRASKA PANHANDLE...

CITY           SKY/WX    TMP DP  RH WIND       PRES   REMARKS
CHADRON        CLOUDY    62  25  24 W24G33    29.95F
ALLIANCE       SUNNY     40  32  73 W12       29.98F WCI  33
SCOTTSBLUFF    SUNNY     60  24  25 W16G24    30.01F
SIDNEY         SUNNY     50  29  44 NW15      30.02F

...WESTERN AND NORTH CENTRAL NEBRASKA...

CITY           SKY/WX    TMP DP  RH WIND       PRES   REMARKS
VALENTINE      SUNNY     55  28  35 NW18G24   29.87S
AINSWORTH      SUNNY     57  26  29 NW21G31   29.85S
ONEILL         SUNNY     53  31  43 NW13      29.82F
BROKEN BOW     SUNNY     58  30  34 NW14      29.85F
IMPERIAL       SUNNY     50  30  46 W14       29.98F
NORTH PLATTE   SUNNY     50  30  46 W17       29.90F
MCCOOK         SUNNY     50  29  44 NW15      29.94F

...EASTERN NEBRASKA...

CITY           SKY/WX    TMP DP  RH WIND       PRES   REMARKS
NORFOLK        SUNNY     35  26  69 E5        29.87R WCI  31
SO SIOUX CITY  CLOUDY    30  21  69 SE12      29.93S WCI  20
TEKAMAH        SUNNY     32  22  66 E12       29.92F WCI  23
COLUMBUS       SUNNY     39  25  56 NE7       29.88S WCI  34
ALBION         SUNNY     46  31  56 W7        29.84S
OMAHA EPPLEY   MOSUNNY   35  22  58 SE6       29.91F WCI  30
OFFUTT AFB     SUNNY     38  22  52 SE6       29.90F WCI  34
MILLARD        SUNNY     36  23  59 SE5       29.91S WCI  32
LINCOLN        SUNNY     40  28  62 NE6       29.90S
NEBRASKA CITY  SUNNY     42  24  49 SW5       29.89F
BEATRICE       SUNNY     48  32  53 W12       29.86F
FALLS CITY     SUNNY     49  26  41 W5        29.88F

...NORTHERN KANSAS...

CITY           SKY/WX    TMP DP  RH WIND       PRES   REMARKS
GOODLAND       SUNNY     58  28  32 W14       30.03F
HILL CITY      SUNNY     55  30  38 W15       29.95F
NORTON         CLEAR     48  27  43 W14       29.93F
PHILLIPSBURG   SUNNY     52  30  43 W21       29.92F
SMITH CENTER   SUNNY     52  32  46 W14       29.91F
BELOIT         SUNNY     57  30  35 W12G17    29.90S
HAYS           SUNNY     61  30  31 NW21G26   29.94F
RUSSELL        SUNNY     64  29  26 W22       29.91F
CONCORDIA      SUNNY     55  30  38 NW14      29.89F
SALINA         SUNNY     69  27  20 W15G24    29.89F
TOPEKA         SUNNY     52  23  32 SW9       29.89F



USA.gov is the U.S. government's official web portal to all federal, state and local government web resources and services.